Content
SEND FEEDBACK

Daily
Averages
Monthly
Summary
Turkey

KILIS, TURKEY


Home > Middle East > Turkey
Elevation: 638 meters     Latitude: 36 06N     Longitude: 037 24E

WEATHER
 
SELECT A DAY
Number of Records: 207,155;   Date Range: 7/1/96 - 8/12/14
 
SHARE

PRINT THIS DATA

[ ← Previous Day ]
WEATHER ALMANAC - 5 MARCH, 2013
[ Next Day → ]
[ °F ]   °C
Weather ElementAverageHighLow
Temperature7.6 °C12.2 °C (2:00 pm)2 °C (10:20 pm)
Dewpoint-4.1 °C5 °C (12:50 am)-14 °C (11:50 pm)
Humidity46.4 %81 % (12:50 am)15 % (8:00 pm)
Barometer1013.2 hPa1017.9 hPa (10:50 pm)1009.5 hPa (2:00 am)
Wind Speed21.7 km/h40.7 km/h (7:50 pm)
Wind Gust61.2 km/h (7:50 pm)
Weather ElementAverage
Visibility10 km
Wind DirectionWSW (256.2 °)

Weather ElementTotal
Precipitation---
Heating Degree Days11.2 (Base 18.3)
Averaged from 52 records on 5 March, 2013
WEATHER CONDITIONS BREAKOUT
WIND DIRECTION BREAKOUT
WEATHER BY HOUR - 5 MARCH, 2013
[ °F ]   °C
Local TimeTemperatureDewpointHumidityBarometerVisibilityWind DirectionWind SpeedGust SpeedPrecipitationEventsConditions
12:50 AM8 °C5 °C81 %1010.2 hPa10 kmWest (260°)14.8 km/hMostly Cloudy
1:04 AM8 °C5 °C81 %1010.2 hPa10 kmWNW (290°)20.4 km/hRainLight Rain Showers
1:20 AM8 °C5 °C81 %1010.2 hPa10 kmWest (280°)14.8 km/hRainLight Rain Showers
1:50 AM8 °C4 °C76 %1010.2 hPa10 kmWNW (300°)13 km/hRainLight Rain Showers
2:00 AM8.3 °C4.4 °C67 %1009.5 hPa9.7 kmWNW (300°)13 km/hRainLight Rain Showers
2:20 AM8 °C4 °C76 %1010.2 hPa10 kmVariable3.7 km/hRainLight Rain Showers
2:50 AM8 °C4 °C76 %1010.2 hPa10 kmVariable1.9 km/hMostly Cloudy
3:20 AM8 °C4 °C76 %1010.2 hPa10 kmWest (260°)5.6 km/hMostly Cloudy
3:50 AM8 °C4 °C76 %1010.2 hPa10 kmVariable1.9 km/hMostly Cloudy
4:20 AM7 °C4 °C81 %1010.2 hPa10 kmWSW (240°)1.9 km/hMostly Cloudy
4:50 AM7 °C3 °C76 %1010.2 hPa10 kmWNW (300°)7.4 km/hMostly Cloudy
5:20 AM6 °C3 °C81 %1010.2 hPa10 kmWSW (240°)1.9 km/hMostly Cloudy
5:50 AM6 °C2 °C76 %1010.2 hPa10 kmCalmMostly Cloudy
6:20 AM6 °C2 °C76 %1011.2 hPa10 kmVariable1.9 km/hMostly Cloudy
6:50 AM6 °C2 °C76 %1011.2 hPa10 kmCalmScattered Clouds
7:20 AM7 °C0 °C61 %1012.2 hPa10 kmVariable3.7 km/hScattered Clouds
7:50 AM9 °C0 °C54 %1012.2 hPa10 kmNNW (340°)16.7 km/hPartly Cloudy
8:00 AM8.3 °C-0.6 °C42 %1012.9 hPa9.7 kmNNW (340°)16.7 km/hPartly Cloudy
8:20 AM9 °C-2 °C46 %1012.2 hPa10 kmNNW (330°)24.1 km/hPartly Cloudy
8:50 AM10 °C-2 °C43 %1013.2 hPa10 kmNNW (330°)22.2 km/hPartly Cloudy
9:20 AM10 °C-2 °C43 %1013.2 hPa10 kmNNW (330°)18.5 km/hPartly Cloudy
9:50 AM10 °C-3 °C40 %1013.2 hPa10 kmNNW (330°)18.5 km/hPartly Cloudy
10:20 AM11 °C-4 °C35 %1013.2 hPa10 kmNNW (340°)18.5 km/hPartly Cloudy
10:50 AM11 °C-4 °C35 %1013.2 hPa10 kmNNW (340°)16.7 km/hPartly Cloudy
11:20 AM12 °C-3 °C35 %1013.2 hPa10 kmNNW (330°)14.8 km/hPartly Cloudy
11:50 AM12 °C-4 °C33 %1013.2 hPa10 kmWNW (290°)25.9 km/hPartly Cloudy
12:20 PM12 °C-6 °C28 %1012.2 hPa10 kmNW (320°)29.6 km/hPartly Cloudy
12:50 PM12 °C-6 °C28 %1012.2 hPa10 kmNW (320°)29.6 km/hPartly Cloudy
1:20 PM12 °C-6 °C28 %1012.2 hPa10 kmNW (320°)31.5 km/hPartly Cloudy
1:50 PM12 °C-5 °C30 %1012.2 hPa10 kmNNW (330°)29.6 km/hScattered Clouds
2:00 PM12.2 °C-5 °C18 %1011.9 hPa9.7 kmNNW (330°)29.6 km/hPartly Cloudy
2:20 PM12 °C-5 °C30 %1012.2 hPa10 kmNW (310°)25.9 km/hScattered Clouds
2:50 PM11 °C-5 °C33 %1012.2 hPa10 kmNW (320°)33.3 km/hScattered Clouds
3:20 PM10 °C-5 °C35 %1012.2 hPa10 kmNorth (350°)25.9 km/h46.3 km/hScattered Clouds
3:50 PM9 °C-5 °C37 %1013.2 hPa10 kmNorth (360°)29.6 km/hScattered Clouds
4:20 PM9 °C-7 °C32 %1013.2 hPa10 kmNorth (350°)33.3 km/h57.5 km/hScattered Clouds
4:50 PM8 °C-8 °C32 %1013.2 hPa10 kmNorth (10°)35.2 km/hScattered Clouds
5:20 PM6 °C-9 °C34 %1014.2 hPa10 kmNorth (10°)31.5 km/hScattered Clouds
5:50 PM6 °C-11 °C29 %1014.2 hPa10 kmNorth (360°)31.5 km/h55.5 km/hPartly Cloudy
6:20 PM6 °C-13 °C25 %1015.2 hPaNNW (330°)37 km/h55.5 km/hClear
6:50 PM4 °C-11 °C33 %1016.3 hPaNorth (350°)27.8 km/hClear
7:20 PM4 °C-13 °C28 %1016.3 hPaNorth (10°)25.9 km/hClear
7:50 PM4 °C-12 °C31 %1016.3 hPaNorth (350°)40.7 km/h61.2 km/hClear
8:00 PM3.3 °C-13.9 °C15 %1017.6 hPa9.7 kmNorth (350°)40.7 km/h
8:20 PM3 °C-12 °C33 %1016.3 hPaNorth (350°)38.9 km/h59.2 km/hClear
8:50 PM3 °C-11 °C36 %1017.3 hPaNorth (350°)27.8 km/hClear
9:20 PM3 °C-12 °C33 %1017.3 hPaNorth (350°)35.2 km/hClear
9:50 PM3 °C-12 °C33 %1017.3 hPaNorth (360°)31.5 km/hClear
10:20 PM2 °C-12 °C35 %1017.3 hPaNorth (360°)35.2 km/h53.8 km/hClear
10:50 PM2 °C-13 °C33 %1017.9 hPaNorth (10°)27.8 km/h46.3 km/hClear
11:20 PM2 °C-13 °C33 %1017.9 hPaNorth (350°)31.5 km/h51.8 km/hClear
11:50 PM2 °C-14 °C30 %1017.9 hPaNNW (340°)33.3 km/hClear
Hourly data recorded from LTAJ, located 0 kilometers away from Kilis, Turkey







STORIES FROM OUR PARTNERS